7 * 24
多渠道服务支持
JILIN-1 GAOFEN 3D06 是吉林一号高分系列卫星之一,由中国长光卫星技术有限公司研制。该卫星具备高分辨率光学成像能力,主要用于遥感观测,服务于农业、林业、城市规划、灾害监测等多个领域。其高精度图像数据可为用户提供丰富的地理信息支持。该卫星已成功发射并投入运行,是推动商业航天和遥感应用发展的重要力量。
数据来源 | 国际轨道数据 |
星历时间: | 2025-10-18T07:33:20+0800 6小时前 查看轨道信息 |
半长轴: | 6795.804km |
偏心率: | 0.0001379 |
轨道倾角: | 97.507° |
近地点辐角 | 164.215° |
升交点赤经 | 34.742° |
平近点角 | 195.914° |
近地点: | 416.731km |
远地点: | 418.607km |
周期: | 92.923分钟 |
每日圈数: | 15.496782 |